Tomorrow-S8

operational
NORAD ID: 66303 Int'l Des: 2025-248 Owner: TOMIO Country: US
NOTLE

关于 Tomorrow-S8

正在加载描述...

实时位置

正在加载3D地球...

即将过境

高度历史

Altitude vs Time

uPlot chart will show altitude changes over time

两行轨道根数

1 66303U 25248L 25355.47026476 .00009942 00000-0 48076-3 0 9997
2 66303 45.4030 352.8378 0003663 116.7744 243.3517 15.18895711 7491
Epoch: Dec 21, 2025 • Age: 11 hours

当前状态

高度 519.7 km
速度 7.60 km/s
星下点 -29.71°S, 106.48°W
发射日期 Nov 2, 2025
运行时间 0.1 years
类型 other

技术详情

分类 Payload
质量 12.00 kg
干质量 12.00 kg
总质量 12.00 kg
长度 0.30 m
直径 0.20 m
跨度 1.20 m
形状 Box+2 pan
制造商 BLCAN
平台类型 Cubesat 6U
阶段状态 In Orbit
所有者/国家 TOMIO/US

大型星座

Loading constellations...